CW2074 Weather Reports


Display with metric or nautical units.
time (UTC)temp
F
wind
direction
speed
MPH
gust
MPH
rain 1hr
in
rain 24hr
in
rain mn
in
humidity
%
barometer
mb
20170328020926 62 134 0.0 2.0 0.00 0.02 0.02 90 1012.7
20170328015404 62 355 0.0 1.0 0.00 0.02 0.02 90 1012.6
20170328013757 63 355 0.0 1.0 0.00 0.02 0.02 90 1012.7
20170328012239 63 355 0.0 1.0 0.00 0.02 0.02 90 1012.8
20170328010633 63 355 0.0 1.0 0.00 0.02 0.02 90 1012.7
20170328005104 64 355 0.0 1.0 0.00 0.02 0.02 90 1012.5
20170328003456 64 355 0.0 0.0 0.00 0.02 0.02 89 1012.5
20170328001734 64 355 0.0 0.0 0.00 0.02 0.02 89 1012.6
20170328000127 65 355 0.0 1.0 0.00 0.02 0.02 89 1012.8
20170327234525 65 355 0.0 1.0 0.02 0.02 0.02 88 1012.7
20170327232809 66 260 0.0 5.0 0.02 0.02 0.02 86 1012.8
20170327231151 69 15 0.0 5.0 0.02 0.02 0.02 80 1012.5
20170327225606 73 251 0.0 1.0 0.00 0.00 0.00 69 1012.5
20170327223952 74 251 0.0 1.0 0.00 0.00 0.00 61 1012.3
20170327222230 75 251 0.0 2.0 0.00 0.00 0.00 60 1012.2
20170327220616 75 251 0.0 2.0 0.00 0.00 0.00 57 1012.4
20170327214958 75 252 0.0 3.0 0.00 0.00 0.00 58 1012.8
20170327213325 75 214 1.0 5.0 0.00 0.00 0.00 58 1013.1
20170327211637 76 248 1.0 5.0 0.00 0.00 0.00 57 1013.0
20170327210026 78 263 2.0 7.0 0.00 0.00 0.00 55 1013.2
20170327204419 77 271 2.0 4.0 0.00 0.00 0.00 57 1013.3
20170327202752 76 219 1.0 5.0 0.00 0.00 0.00 57 1014.0
20170327201135 77 242 2.0 7.0 0.00 0.00 0.00 58 1014.3
20170327195513 77 232 1.0 8.0 0.00 0.00 0.00 57 1014.5
20170327193858 77 271 1.0 7.0 0.00 0.00 0.00 57 1014.6
20170327192225 77 162 1.0 7.0 0.00 0.00 0.00 60 1015.2
20170327190457 78 221 4.0 8.0 0.00 0.00 0.00 56 1015.6
20170327184840 78 234 3.0 6.0 0.00 0.00 0.00 58 1015.6
20170327183241 77 217 4.0 10.0 0.00 0.00 0.00 59 1015.9
20170327181600 78 269 3.0 12.0 0.00 0.00 0.00 59 1016.0
20170327175907 77 215 3.0 8.0 0.00 0.00 0.00 61 1016.3
20170327174307 75 301 2.0 6.0 0.00 0.00 0.00 63 1016.7
20170327172651 76 235 1.0 7.0 0.00 0.00 0.00 62 1017.0
20170327171027 75 263 1.0 5.0 0.00 0.00 0.00 64 1017.3
20170327165404 74 258 1.0 6.0 0.00 0.00 0.00 67 1017.5
20170327163719 72 273 2.0 11.0 0.00 0.00 0.00 71 1017.9
20170327162017 72 297 1.0 7.0 0.00 0.00 0.00 70 1018.1
20170327160405 72 280 3.0 6.0 0.00 0.00 0.00 72 1018.4
20170327154729 71 293 1.0 8.0 0.00 0.00 0.00 74 1018.5
20170327153105 70 298 4.0 11.0 0.00 0.00 0.00 75 1018.7
20170327151454 69 252 1.0 6.0 0.00 0.00 0.00 79 1018.7
20170327145743 68 234 2.0 6.0 0.00 0.00 0.00 79 1018.9
20170327144146 68 261 2.0 8.0 0.00 0.00 0.00 79 1018.8
20170327142535 67 233 2.0 6.0 0.00 0.00 0.00 82 1018.7
20170327140932 66 302 2.0 8.0 0.00 0.00 0.00 82 1018.6
20170327135158 66 284 1.0 6.0 0.00 0.00 0.00 83 1018.7
20170327133527 64 263 1.0 4.0 0.00 0.00 0.00 84 1018.6
20170327131936 64 261 1.0 6.0 0.00 0.00 0.00 85 1018.6
20170327130309 62 252 1.0 9.0 0.00 0.00 0.00 87 1018.3
20170327124646 60 265 2.0 6.0 0.00 0.00 0.00 89 1018.0
20170327123035 59 272 1.0 6.0 0.00 0.00 0.00 90 1017.9
20170327121350 58 263 0.0 4.0 0.00 0.00 0.00 90 1017.6
20170327115838 58 228 0.0 5.0 0.00 0.00 0.00 90 1017.5
20170327114253 58 252 2.0 4.0 0.00 0.00 0.00 90 1017.4
20170327112539 58 254 1.0 4.0 0.00 0.00 0.00 90 1017.1
20170327110936 58 241 0.0 3.0 0.00 0.00 0.00 90 1016.9
20170327105324 58 255 0.0 2.0 0.00 0.01 0.00 90 1016.7
20170327103715 58 242 0.0 2.0 0.00 0.01 0.00 89 1016.6
20170327102001 58 215 1.0 3.0 0.00 0.01 0.00 89 1016.5
20170327100322 59 246 1.0 5.0 0.00 0.01 0.00 89 1016.4
20170327094728 59 240 1.0 5.0 0.00 0.01 0.00 89 1016.4
20170327093028 59 211 1.0 5.0 0.00 0.01 0.00 88 1016.4
20170327091351 59 246 1.0 4.0 0.00 0.01 0.00 88 1016.4
20170327085746 59 225 1.0 4.0 0.00 0.01 0.00 88 1016.4
20170327084056 59 238 1.0 3.0 0.00 0.01 0.00 87 1016.4
20170327082435 59 247 0.0 3.0 0.00 0.01 0.00 87 1016.3
20170327080843 59 234 0.0 1.0 0.00 0.01 0.00 87 1016.2
20170327075230 60 234 0.0 1.0 0.00 0.01 0.00 86 1016.1
20170327073607 60 228 0.0 1.0 0.00 0.01 0.00 86 1016.2
20170327071922 60 228 0.0 1.0 0.00 0.01 0.00 85 1016.3
20170327070257 61 228 0.0 1.0 0.00 0.01 0.00 84 1016.3
20170327064550 61 236 1.0 3.0 0.00 0.01 0.00 84 1016.6
20170327062911 62 155 0.0 2.0 0.00 0.01 0.00 83 1016.4
20170327061254 63 157 0.0 6.0 0.00 0.01 0.00 82 1016.7
20170327055644 63 219 0.0 3.0 0.00 0.01 0.00 81 1016.8
20170327054022 63 271 0.0 4.0 0.00 0.01 0.00 80 1016.9
20170327052418 64 209 1.0 4.0 0.00 0.01 0.00 80 1017.2
20170327050721 64 259 0.0 3.0 0.00 0.01 0.00 79 1017.0
20170327045103 64 239 1.0 6.0 0.00 0.01 0.00 79 1017.1
20170327043424 64 218 0.0 5.0 0.00 0.01 0.00 79 1017.1
20170327041802 64 230 0.0 5.0 0.00 0.01 0.00 79 1017.1
20170327040101 63 210 1.0 3.0 0.00 0.01 0.00 80 1017.0
20170327034444 63 216 0.0 2.0 0.00 0.01 0.01 79 1017.0
20170327032844 64 216 0.0 2.0 0.00 0.01 0.01 78 1017.0
20170327031144 65 189 0.0 1.0 0.00 0.01 0.01 77 1017.0
20170327025525 65 189 0.0 1.0 0.00 0.01 0.01 75 1017.1
20170327023855 66 192 0.0 3.0 0.00 0.01 0.01 75 1017.2
20170327022405 66 137 0.0 2.0 0.00 0.01 0.01 74 1017.1